TimeCDT,TemperatureF,Dew PointF,Humidity,Sea Level PressureIn,VisibilityMPH,Wind Direction,Wind SpeedMPH,Gust SpeedMPH,PrecipitationIn,Events,Conditions,WindDirDegrees,DateUTC
12:15 AM,59.2,50.7,74,30.08,10.0,Calm,Calm,-,N/A,,Clear,0,2013-06-19 05:15:00
12:35 AM,60.8,50.9,70,30.08,10.0,Calm,Calm,-,N/A,,Scattered Clouds,0,2013-06-19 05:35:00
12:55 AM,60.1,51.8,74,30.07,10.0,Calm,Calm,-,N/A,,Mostly Cloudy,0,2013-06-19 05:55:00
1:15 AM,59.9,50.4,71,30.07,10.0,ESE,4.6,-,N/A,,Mostly Cloudy,120,2013-06-19 06:15:00
1:35 AM,60.1,50.9,72,30.08,10.0,Calm,Calm,-,N/A,,Mostly Cloudy,0,2013-06-19 06:35:00
1:55 AM,60.1,50.9,72,30.08,10.0,ESE,4.6,-,N/A,,Overcast,110,2013-06-19 06:55:00
2:15 AM,59.9,50.5,71,30.09,10.0,Calm,Calm,-,N/A,,Mostly Cloudy,0,2013-06-19 07:15:00
2:35 AM,59.9,50.4,71,30.08,10.0,Calm,Calm,-,N/A,,Mostly Cloudy,0,2013-06-19 07:35:00
2:55 AM,59.0,50.4,73,30.08,10.0,East,3.5,-,N/A,,Scattered Clouds,100,2013-06-19 07:55:00
3:15 AM,58.3,49.8,73,30.08,10.0,East,3.5,-,N/A,,Clear,90,2013-06-19 08:15:00
3:35 AM,58.3,49.1,71,30.07,10.0,East,4.6,-,N/A,,Clear,90,2013-06-19 08:35:00
3:55 AM,57.6,48.6,72,30.07,10.0,East,3.5,-,N/A,,Clear,100,2013-06-19 08:55:00
4:15 AM,57.4,48.2,71,30.07,10.0,Calm,Calm,-,N/A,,Scattered Clouds,0,2013-06-19 09:15:00
4:35 AM,56.7,48.2,73,30.07,10.0,Calm,Calm,-,N/A,,Scattered Clouds,0,2013-06-19 09:35:00
4:55 AM,56.7,48.0,73,30.08,10.0,Calm,Calm,-,N/A,,Clear,0,2013-06-19 09:55:00
5:15 AM,56.3,48.2,74,30.08,10.0,East,4.6,-,N/A,,Scattered Clouds,80,2013-06-19 10:15:00
5:35 AM,55.8,48.2,76,30.09,10.0,East,3.5,-,N/A,,Scattered Clouds,90,2013-06-19 10:35:00
5:55 AM,54.7,48.4,79,30.09,10.0,SE,3.5,-,N/A,,Clear,140,2013-06-19 10:55:00
6:15 AM,55.4,47.8,76,30.11,10.0,ESE,3.5,-,N/A,,Clear,120,2013-06-19 11:15:00
6:35 AM,56.1,48.0,74,30.11,10.0,ESE,3.5,-,N/A,,Clear,110,2013-06-19 11:35:00
6:55 AM,57.9,48.4,71,30.11,10.0,ESE,4.6,-,N/A,,Scattered Clouds,110,2013-06-19 11:55:00
7:15 AM,59.2,48.2,67,30.11,10.0,ESE,5.8,-,N/A,,Scattered Clouds,120,2013-06-19 12:15:00
7:35 AM,60.3,48.9,66,30.12,10.0,ESE,4.6,-,N/A,,Clear,120,2013-06-19 12:35:00
7:55 AM,60.4,49.5,67,30.12,10.0,ESE,5.8,-,N/A,,Mostly Cloudy,120,2013-06-19 12:55:00
8:15 AM,61.7,49.3,64,30.12,10.0,ESE,4.6,-,N/A,,Mostly Cloudy,120,2013-06-19 13:15:00
8:35 AM,63.9,50.5,62,30.11,10.0,SE,6.9,-,N/A,,Scattered Clouds,140,2013-06-19 13:35:00
8:55 AM,65.8,50.0,57,30.11,10.0,South,9.2,-,N/A,,Clear,170,2013-06-19 13:55:00
9:15 AM,66.7,50.7,56,30.11,10.0,South,9.2,-,N/A,,Clear,170,2013-06-19 14:15:00
9:35 AM,67.5,51.4,56,30.11,10.0,South,9.2,-,N/A,,Scattered Clouds,170,2013-06-19 14:35:00
9:55 AM,68.9,51.8,54,30.09,10.0,SSE,9.2,-,N/A,,Clear,160,2013-06-19 14:55:00
10:15 AM,69.4,52.5,55,30.10,10.0,South,8.1,-,N/A,,Scattered Clouds,180,2013-06-19 15:15:00
10:35 AM,70.0,53.2,55,30.10,10.0,South,8.1,-,N/A,,Scattered Clouds,170,2013-06-19 15:35:00
10:55 AM,71.4,54.3,55,30.09,10.0,South,8.1,-,N/A,,Scattered Clouds,190,2013-06-19 15:55:00
11:15 AM,73.0,54.9,53,30.09,10.0,South,4.6,-,N/A,,Clear,170,2013-06-19 16:15:00
11:35 AM,73.6,55.6,53,30.09,10.0,SSE,5.8,-,N/A,,Clear,160,2013-06-19 16:35:00
11:55 AM,74.1,55.2,52,30.08,10.0,South,8.1,-,N/A,,Scattered Clouds,170,2013-06-19 16:55:00
12:15 PM,74.5,55.4,51,30.08,10.0,South,6.9,-,N/A,,Mostly Cloudy,170,2013-06-19 17:15:00
12:35 PM,75.4,55.8,50,30.07,10.0,South,9.2,-,N/A,,Scattered Clouds,180,2013-06-19 17:35:00
12:55 PM,75.7,55.6,49,30.06,10.0,SSE,5.8,-,N/A,,Scattered Clouds,150,2013-06-19 17:55:00
1:15 PM,76.8,56.7,50,30.06,10.0,SE,8.1,-,N/A,,Scattered Clouds,140,2013-06-19 18:15:00
1:35 PM,77.2,56.1,48,30.05,10.0,SSE,4.6,-,N/A,,Clear,160,2013-06-19 18:35:00
1:55 PM,77.9,56.7,48,30.05,10.0,SSW,8.1,-,N/A,,Scattered Clouds,200,2013-06-19 18:55:00
2:15 PM,78.1,55.8,46,30.05,10.0,Calm,Calm,-,N/A,,Scattered Clouds,0,2013-06-19 19:15:00
2:35 PM,78.6,55.8,45,30.05,10.0,South,4.6,-,N/A,,Clear,170,2013-06-19 19:35:00
2:55 PM,78.3,55.8,46,30.04,10.0,SSE,9.2,-,N/A,,Scattered Clouds,160,2013-06-19 19:55:00
3:15 PM,79.5,56.8,46,30.04,10.0,SSE,9.2,-,N/A,,Scattered Clouds,150,2013-06-19 20:15:00
3:35 PM,77.7,56.3,48,30.03,10.0,SE,5.8,-,N/A,,Scattered Clouds,140,2013-06-19 20:35:00
3:55 PM,79.5,55.0,43,30.03,10.0,SSW,3.5,-,N/A,,Scattered Clouds,200,2013-06-19 20:55:00
4:15 PM,77.9,56.8,48,30.03,10.0,SE,5.8,-,N/A,,Clear,140,2013-06-19 21:15:00
4:35 PM,80.1,56.7,45,30.02,10.0,SSE,8.1,-,N/A,,Scattered Clouds,160,2013-06-19 21:35:00
4:55 PM,80.1,57.0,45,30.02,10.0,SSE,6.9,-,N/A,,Scattered Clouds,150,2013-06-19 21:55:00
5:15 PM,79.9,56.1,44,30.01,10.0,South,4.6,-,N/A,,Clear,190,2013-06-19 22:15:00
5:35 PM,79.9,55.9,44,30.01,10.0,SSE,8.1,-,N/A,,Mostly Cloudy,150,2013-06-19 22:35:00
5:55 PM,80.6,56.3,43,30.01,10.0,SSE,9.2,-,N/A,,Scattered Clouds,160,2013-06-19 22:55:00
6:15 PM,78.4,56.8,47,30.01,10.0,South,5.8,-,N/A,,Scattered Clouds,180,2013-06-19 23:15:00
6:35 PM,78.3,57.4,49,30.01,10.0,South,5.8,-,N/A,,Clear,180,2013-06-19 23:35:00
6:55 PM,79.2,56.7,46,30.01,10.0,South,8.1,-,N/A,,Clear,170,2013-06-19 23:55:00
7:15 PM,78.8,57.0,47,30.01,10.0,SE,4.6,-,N/A,,Clear,140,2013-06-20 00:15:00
7:35 PM,78.1,57.4,49,30.01,10.0,SSE,9.2,-,N/A,,Clear,150,2013-06-20 00:35:00
7:55 PM,77.0,57.2,50,30.00,10.0,SE,5.8,-,N/A,,Clear,140,2013-06-20 00:55:00
8:15 PM,75.9,57.4,52,30.01,10.0,SE,6.9,-,N/A,,Clear,140,2013-06-20 01:15:00
8:35 PM,74.8,57.6,55,30.00,10.0,ESE,5.8,-,N/A,,Clear,120,2013-06-20 01:35:00
8:55 PM,73.6,58.1,58,30.00,10.0,ESE,5.8,-,N/A,,Clear,120,2013-06-20 01:55:00
9:15 PM,72.5,58.1,60,30.00,10.0,SE,5.8,-,N/A,,Clear,130,2013-06-20 02:15:00
9:35 PM,71.8,58.3,62,30.01,10.0,ESE,6.9,-,N/A,,Clear,120,2013-06-20 02:35:00
9:55 PM,71.4,58.6,64,30.02,10.0,ESE,5.8,-,N/A,,Clear,110,2013-06-20 02:55:00
10:15 PM,70.7,59.0,66,30.03,10.0,East,3.5,-,N/A,,Scattered Clouds,100,2013-06-20 03:15:00
10:35 PM,69.8,59.0,68,30.03,10.0,ESE,3.5,-,N/A,,Mostly Cloudy,120,2013-06-20 03:35:00
10:55 PM,70.2,59.0,68,30.03,10.0,ESE,5.8,-,N/A,,Overcast,120,2013-06-20 03:55:00
11:15 PM,69.8,58.8,68,30.03,10.0,ESE,5.8,-,N/A,,Mostly Cloudy,120,2013-06-20 04:15:00
11:35 PM,69.3,58.6,69,30.03,10.0,ESE,5.8,-,N/A,,Scattered Clouds,110,2013-06-20 04:35:00
11:55 PM,67.6,59.0,74,30.03,10.0,ESE,6.9,-,N/A,,Clear,120,2013-06-20 04:55:00